Location: Unspecified
(51.5147°N, 7.4673°E)
Time: 05:36:36
(UTC+01:00)

A-11 Canister half - Pass Details

Date: 18 February 2026
Orbit: 1524 x 1683 km, 47.3° (Epoch: 14 March)

Event Time Altitude Azimuth Distance (km) Brightness Sun altitude
Rises 20:08:00 0° 268° (W) 4,689 13.0 -21.9°
Reaches altitude 10° 20:11:04 10° 267° (W) 3,698 12.1 -22.4°
Maximum altitude 20:20:15 68° 187° (S) 1,625 9.0 -23.8°
Enters shadow 20:24:07 39° 118° (ESE) 2,156 9.2 -24.4°
